Flag for India Weather past 2 weeks in New Okhla Industrial Development Authority, Uttar Pradesh, India

Now
88 °F

Haze.


Feels Like: 87 °F
Forecast: 70 / 93 °F
Wind: 5 mph from Northeast

Location: New Delhi Palam Airport

Current Time: Oct 23, 2014 at 6:03:42 PM

Latest Report: Oct 23, 2014 at 5:00 PM


Visibility: 2 mi

Pressure: 29.86 "Hg

Humidity: 38%

Dew point: 59 °F

Location of New Okhla Industrial Development AuthorityLocation

Historic Weather in New Okhla Industrial Development Authority — Graph

°F

New Okhla Industrial Development Authority temperature yesterday

Maximum temperature yesterday: 91 °F (at 12:00 PM)
Minimum temperature yesterday: 68 °F (at 6:30 AM)
Average temperature yesterday: 80 °F

Past Weeks' High & Low Weather Summary

 TemperatureHumidityPressure
High95 °F (Oct 9, 3:30 PM)94% (Oct 17, 4:30 AM)30.07 "Hg (Oct 17, 4:30 AM)
Low63 °F (Oct 17, 4:30 AM)20% (Oct 12, 4:30 PM)29.77 "Hg (Oct 10, 4:30 PM)
Average78 °F56%29.91 "Hg
* Reported Oct 8 3:30 PM — Oct 23 4:00 PM, New Okhla Industrial Development Authority, Weather by CustomWeather, © 2014

Note: Actual official high and low records may vary slightly from our data, if they occured in-between our weather recording intervals... More about our weather records

Advertising

New Okhla Industrial Development Authority weather history for previous 24 hours

 ConditionsComfort  
Time TempWeatherWind HumidityBarometerVisibility
4:00 PM
Oct 23
90 °FHaze.6 mph36%29.89 "Hg1 mi
3:30 PM90 °FHaze.6 mph36%29.89 "Hg1 mi
3:00 PM90 °FHaze.6 mph38%29.92 "Hg1 mi
2:30 PM90 °FHaze.6 mph38%29.92 "Hg1 mi
2:00 PM90 °FHaze.3 mph41%29.92 "Hg1 mi
1:30 PM88 °FHaze.6 mph46%29.95 "Hg1 mi
1:00 PM88 °FHaze.6 mph46%29.95 "Hg1 mi
12:00 PM88 °FHaze.7 mph46%29.98 "Hg2 mi
11:30 AM88 °FHaze.6 mph43%29.98 "Hg2 mi
10:30 AM86 °FHaze.6 mph49%30.01 "Hg2 mi
10:00 AM84 °FHaze.6 mph51%30.01 "Hg2 mi
9:30 AM82 °FClear.6 mph55%30.01 "Hg1 mi
7:30 AM70 °FFog.5 mph83%29.98 "Hg1 mi
7:00 AM68 °FFog.6 mph88%29.98 "Hg1 mi
6:30 AM68 °FFog.5 mph88%29.98 "Hg1 mi
6:00 AM68 °FFog.3 mph88%29.95 "Hg1 mi
5:30 AM68 °FFog.3 mph88%29.95 "Hg1 mi
5:00 AM68 °FFog.3 mph88%29.95 "Hg1 mi
4:30 AM68 °FFog.No wind88%29.95 "Hg1 mi
4:00 AM68 °FFog.No wind88%29.95 "Hg1 mi
3:30 AM68 °FFog.No wind88%29.95 "Hg1 mi
3:00 AM70 °FFog.3 mph83%29.95 "Hg1 mi
2:30 AM70 °FFog.3 mph83%29.95 "Hg1 mi
1:30 AM72 °FClear.No wind73%29.95 "Hg1 mi
1:00 AM72 °FFog.No wind78%29.95 "Hg1 mi
12:30 AM72 °FFog.No wind78%29.95 "Hg1 mi
12:00 AM73 °FClear.3 mph74%29.98 "Hg1 mi
11:30 PM
Oct 22
75 °FClear.3 mph69%29.98 "Hg1 mi
11:00 PM77 °FClear.2 mph61%29.98 "Hg1 mi
10:00 PM77 °FClear.3 mph61%29.98 "Hg1 mi
9:30 PM77 °FClear.3 mph61%29.98 "Hg1 mi
9:00 PM77 °FClear.3 mph61%29.98 "Hg1 mi
8:30 PM79 °FHaze.3 mph54%29.98 "Hg1 mi
8:00 PM79 °FHaze.3 mph54%29.95 "Hg1 mi
7:00 PM84 °FHaze.5 mph45%29.95 "Hg1 mi
6:30 PM84 °FHaze.5 mph45%29.95 "Hg1 mi
Weather by CustomWeather, © 2014

See weather overviewHow to use our weather pages